Miscellaneous Local Product
Issued by NWS Hastings, NE

Home | Current Version | Previous Version | Graphics & Text | Print | Product List | Glossary On
Versions: 1 2 3 4 5 6 7 8 9 10 11 12 13 14 15 16 17 18 19 20 21 22 23 24 25 26 27 28 29 30 31 32 33 34 35 36 37 38 39 40 41 42 43 44 45 46 47 48 49 50
000
AXUS43 KGID 301102
MISGRI

GID CWA HOURLY WEATHER ROUNDUP
NATIONAL WEATHER SERVICE HASTINGS NE
500 AM CST FRI JAN 30 2015

NOTE: "FAIR" INDICATES FEW OR NO CLOUDS BELOW 12,000 FEET WITH NO
SIGNIFICANT WEATHER AND/OR OBSTRUCTIONS TO VISIBILITY.

...SOUTH CENTRAL NEBRASKA...

CITY           SKY/WX    TMP DP  RH WIND       PRES   REMARKS
GRAND ISLAND   PTCLDY    19  17  92 SE5       30.48F WCI  12
HASTINGS       MOCLDY    21  18  88 S6        30.47S WCI  13
KEARNEY        MOCLDY    18  14  86 S6        30.46F WCI   9
ORD            PTCLDY    20  16  84 SE3       30.44F
YORK           PTCLDY    18  16  93 CALM      30.49F FOG
AURORA         PTCLDY    20  18  94 S5        30.48S WCI  13
LEXINGTON      PTCLDY    21  17  86 SE5       30.42F WCI  15
HOLDREGE       MOCLDY    24  18  78 S6        30.45F WCI  16
HEBRON         PTCLDY    15  11  86 CALM      30.51S

...NEBRASKA PANHANDLE...

CITY           SKY/WX    TMP DP  RH WIND       PRES   REMARKS
CHADRON        MOCLDY    37  17  44 SW10      30.23F WCI  30
ALLIANCE       MOCLDY    25  20  81 SE6       30.26F WCI  18
SCOTTSBLUFF    MOCLDY    29  22  75 E8        30.26F WCI  21
SIDNEY         CLOUDY    28  20  71 S8        30.27F WCI  20

...WESTERN AND NORTH CENTRAL NEBRASKA...

CITY           SKY/WX    TMP DP  RH WIND       PRES   REMARKS
VALENTINE      CLEAR     18  15  88 SE5       30.33F WCI  11
AINSWORTH      CLEAR     22  19  87 S9        30.36F WCI  12
ONEILL         CLEAR     20  19  95 S7        30.44F WCI  11
BROKEN BOW     PTCLDY    20  16  84 SE5       30.40F WCI  13
IMPERIAL       MOCLDY    30  22  72 S8        30.36F WCI  22
NORTH PLATTE   MOCLDY    18  14  84 SE7       30.38F WCI   9
MCCOOK         MOCLDY    21  16  81 CALM      30.42F

...EASTERN NEBRASKA...

CITY           SKY/WX    TMP DP  RH WIND       PRES   REMARKS
NORFOLK        CLEAR     17  15  92 S6        30.48F WCI   9
SO SIOUX CITY  PTCLDY    19  16  88 E6        30.52F WCI  11
TEKAMAH        PTCLDY    17  14  88 CALM      30.54F
COLUMBUS       CLEAR     12   3  67 CALM      30.51F
ALBION         FAIR      14  11  87 CALM      30.48S
OMAHA EPPLEY   PTCLDY    19  17  92 CALM      30.54F
OFFUTT AFB     PTCLDY    15  13  91 CALM      30.53F
MILLARD        PTCLDY    19  16  88 CALM      30.54F
LINCOLN        CLEAR     13  10  88 N5        30.54S WCI   5
NEBRASKA CITY  PTCLDY    20  17  89 CALM      30.53S
FALLS CITY     PTCLDY    17  14  88 W3        30.54F

...NORTHERN KANSAS...

CITY           SKY/WX    TMP DP  RH WIND       PRES   REMARKS
GOODLAND       MOCLDY    29  21  72 S12       30.37F WCI  19
HILL CITY      PTCLDY    17  13  84 W3        30.46F
NORTON         SUNNY     19  14  79 SW6       30.43F WCI  11
PHILLIPSBURG   CLEAR     21  18  86 CALM      30.48S
SMITH CENTER   CLEAR     18  16  93 E8        30.49F WCI   7
BELOIT         CLEAR     16  12  86 CALM      30.52R
HAYS           FAIR      18   7  62 W5        30.48S WCI  11
RUSSELL        CLEAR     19  17  92 SW5       30.47S WCI  12
CONCORDIA      PTCLDY    21  19  92 SE7       30.51S WCI  12
SALINA         MOCLDY    23  17  78 CALM      30.53S
TOPEKA         PTCLDY    18  15  88 CALM      30.55F



USA.gov is the U.S. government's official web portal to all federal, state and local government web resources and services.